Zurück zum Katalog

FENGYUN 1C DEB

LostPO
NORAD 36731·DEBRIS·🇨🇳 China

Gestartet May 10, 1999 von Taiyuan Satellite Launch Center

Loading…

Nächste Überflüge (nächste 24 Stunden)

TLE

VeraltetSource: Space-Track

Epoche: Sep 9, 2022, 02:56 UTC

1 36731U 99025EBD 22252.12283576  .00002779  00000-0  95981-3 0  9992
2 36731  99.1355 212.8648 0049948  27.4015 332.9787 14.35977747714339

Verfolge FENGYUN 1C DEB in Echtzeit mit AllMySat

Download on the App Store